Regional Weather Roundup
Issued by NWS

Home | Current Version | Previous Version | Text Only | Print | Product List | Glossary Off
Versions: 1 2 3 4 5 6 7 8 9 10 11 12 13 14 15 16 17 18 19 20 21 22 23 24 25 26 27 28 29 30 31 32 33 34 35 36 37 38 39 40 41 42 43 44 45 46 47 48 49 50

000
ASUS45 KABQ 281701
RWRNM
WEATHER ROUNDUP FOR NEW MEXICO
NATIONAL WEATHER SERVICE ALBUQUERQUE NM
1000 AM MST SAT FEB 28 2015

NOTE: "FAIR" MEANS FEW OR NO CLOUDS BELOW 12,000 FEET AGL WITH NO
       SIGNIFICANT WEATHER OR OBSTRUCTIONS TO VISION.

      THIS PRODUCT IS RELEASED AS TWO VERSIONS.  ONE VERSION NEAR
      THE TOP OF THE HOUR CONTAINING PRELIMINARY DATA FROM ALBUQUERQUE
      AND OTHER STATIONS.  A FINAL VERSION WITH ADDITIONAL DATA IS
      ISSUED ABOUT 10 MINUTES AFTER THE HOUR.

NMZ501-503-504-510>518-281800-
NORTHWEST PLATEAU/NORTHCENTRAL MOUNTAINS

CITY           SKY/WX    TMP DP  RH WIND       PRES   REMARKS
FARMINGTON     LGT SNOW  31  28  89 E12       29.81S FOG     WCI  22
SANTA FE       LGT SNOW  22  16  78 SE8       29.92S WCI  12
TAOS           CLOUDY    19  12  73 CALM      29.89F VSB 3/4
ANGEL FIRE     LGT SNOW  26  23  89 E3        29.86R VSB 3/4

$$
NMZ402-403-502-505>509-281800-
WESTCENTRAL MOUNTAINS/SOUTHWEST MOUNTAINS

CITY           SKY/WX    TMP DP  RH WIND       PRES   REMARKS
GALLUP         LGT RAIN  37  33  85 SW16      29.79S WCI  28
GRANTS         LGT SNOW  27  24  86 SE13      29.88F WCI  17
SILVER CITY    SUNNY     41  27  56 S6        29.97S

$$
NMZ407-409-411-412-281800-
SOUTHERN DESERTS

CITY           SKY/WX    TMP DP  RH WIND       PRES   REMARKS
DEMING         SUNNY     39  25  57 MISG      29.98S
HOLLOMAN AFB   MOSUNNY   36  24  61 S3        30.03F
ALAMOGORDO     MOSUNNY   34  25  69 W3        30.05S
T OR C         SUNNY     39  26  59 CALM      29.94S

$$
NMZ519>523-281800-
CENTRAL VALLEYS/CENTRAL HIGHLANDS

CITY           SKY/WX    TMP DP  RH WIND       PRES   REMARKS
ALBUQUERQUE    PTSUNNY   25  20  81 N7        29.95S WCI  17
MORIARTY ARPT  CLOUDY    21  19  90 S5        29.95S WCI  15
CLINES CORNERS CLOUDY    25  22  88 SW13      29.88S FOG     WCI  14
BELEN          CLOUDY    28  24  85 E3        29.95S
SOCORRO          N/A     35  28  76 S13       29.96S WCI  26

$$
NMZ524>526-539-540-281800-
SOUTHCENTRAL MOUNTAINS

CITY           SKY/WX    TMP DP  RH WIND       PRES   REMARKS
RUIDOSO        NOT AVBL

$$
NMZ527>531-281800-
NORTHEAST HIGHLANDS/NORTHEAST PLAINS

CITY           SKY/WX    TMP DP  RH WIND       PRES   REMARKS
LAS VEGAS      MIX PCPN  14  11  87 S20       29.89S FOG     WCI  -3
RATON          PTSUNNY   13   7  77 E3        29.90F
CLAYTON        PTSUNNY   17  12  80 S17       29.97F WCI   1

$$
NMZ532>537-281800-
EASTCENTRAL PLAINS

CITY           SKY/WX    TMP DP  RH WIND       PRES   REMARKS
TUCUMCARI      CLOUDY    21  17  84 SW12      30.08S WCI   9
CANNON AFB     NOT AVBL
CLOVIS AIRPORT CLOUDY    16  12  86 S10       30.11F WCI   3

$$
NMZ028-029-538-281800-
SOUTHEAST PLAINS

CITY           SKY/WX    TMP DP  RH WIND       PRES   REMARKS
ROSWELL        CLOUDY    22  20  92 S12       30.14S WCI  10
ARTESIA        CLOUDY    23  23 100 S14       30.16R WCI  11
CARLSBAD       CLOUDY    26  22  84 SE12      30.16S WCI  16
HOBBS          CLOUDY    21  21 100 CALM      30.18R FOG


$$


USA.gov is the U.S. government's official web portal to all federal, state and local government web resources and services.